User: anonymous   Login
Location: Norton
(51.3000°N, 0.8167°E)
Time: 21:46:16
(UTC+00:00)
Language:

Gbstr 26 Del rocket - Orbit

View from above orbital plane
View from above orbital plane
View from above satellite
View from above satellite

Ground track
Ground track

The orbit data is extracted from the following two-line orbital elements,

1 25876U 99041E   21134.89579750 -.00000136  00000-0  16226-4 0  9994
2 25876  51.7672  81.7813 0530477 230.8005 124.4672 14.04569863115201
Epoch (UTC): 14 May 2021 21:29:56
Eccentricity: 0.0530477
inclination: 51.7672°
perigee height: 493 km
apogee height: 1263 km
right ascension of ascending node: 81.7813°
argument of perigee: 230.8005°
revolutions per day: 14.04569863
mean anomaly at epoch: 124.4672°
orbit number at epoch: 11520

The dashed part of the orbit path shows where the satellite is in the earth's shadow,  

DLR